Roanoke, VA

2:34 PM EDT on April 29, 2017 (GMT -0400)
Roanoke Regional-Woodrum

Weather History for KROA - May, 2013

Change the Weather History Date:

Tuesday, May 28, 2013

  Actual Average Record
Temperature  
Mean Temperature 72 °F 68 °F  
Max Temperature 87 °F 79 °F 98 °F (1941)
Min Temperature 56 °F 57 °F 39 °F (1994)
Degree Days  
Heating Degree Days 0 2  
Month to date heating degree days 117 97  
Since 1 July heating degree days 4000 4129  
Cooling Degree Days 7 4  
Month to date cooling degree days 75 73  
Year to date cooling degree days 118 102  
Growing Degree Days 21 (Base 50)    
Moisture  
Dew Point 57 °F    
Average Humidity 60    
Maximum Humidity 86    
Minimum Humidity 34    
Precipitation  
Precipitation 0.00 in 0.15 in 2.33 in (1990)
Month to date precipitation 4.91 3.62  
Year to date precipitation 20.54 16.26  
Snow  
Snow 0.00 in - - ()
Month to date snowfall 0.0  
Since 1 July snowfall 18.3  
Snow Depth 0.00 in    
Sea Level Pressure  
Sea Level Pressure 30.16 in    
Wind  
Wind Speed 5 mph (SSW)    
Max Wind Speed 18 mph    
Max Gust Speed 24 mph    
Visibility 10 miles    
Events      
T = Trace of Precipitation, MM = Missing Value Source: NWS Daily Summary

Daily Weather History Graph

Daily Weather History Graph

Search for Another Location

Airport or City:

Trip Planner

Search our weather history database for the weather conditions in past years. The results will help you decide how hot, cold, wet, or windy it might be!

Date:

Astronomy

May. 28, 2013 Rise Set
Actual Time 6:02 AM EDT 8:32 PM EDT
Civil Twilight 5:32 AM EDT 9:02 PM EDT
Nautical Twilight 4:54 AM EDT 9:40 PM EDT
Astronomical Twilight 4:13 AM EDT 10:21 PM EDT
Moon 11:57 PM EDT (5/28) 9:46 AM EDT (5/28)
Length of Visible Light 15h 30m
Length of Day
14h 29m
Waning Gibbous, 83% of the Moon is Illuminated
May 28
Waning Gibbous
May 31
Last Quarter
Jun 8
New
Jun 16
First Quarter
Jun 23
Full

Hourly Weather History & Observations

Time (EDT) Temp. Heat Index Dew Point Humidity Pressure Visibility Wind Dir Wind Speed Gust Speed Precip Events Conditions
12:54 AM 64.9 °F - 53.1 °F 65% 30.19 in 10.0 mi Calm Calm - N/A   Clear
1:54 AM 61.0 °F - 53.1 °F 75% 30.18 in 10.0 mi Calm Calm - N/A   Clear
2:54 AM 60.1 °F - 53.1 °F 78% 30.17 in 10.0 mi Calm Calm - N/A   Clear
3:54 AM 57.9 °F - 53.1 °F 84% 30.17 in 10.0 mi Calm Calm - N/A   Clear
4:54 AM 57.9 °F - 53.1 °F 84% 30.17 in 10.0 mi Calm Calm - N/A   Clear
5:54 AM 57.0 °F - 53.1 °F 87% 30.20 in 10.0 mi Calm Calm - N/A   Clear
6:54 AM 57.0 °F - 54.0 °F 89% 30.21 in 10.0 mi Calm Calm - N/A   Clear
7:54 AM 60.1 °F - 54.0 °F 80% 30.22 in 10.0 mi Calm Calm - N/A   Clear
8:54 AM 64.9 °F - 55.9 °F 73% 30.21 in 10.0 mi Calm Calm - N/A   Clear
9:54 AM 68.0 °F - 55.9 °F 65% 30.22 in 10.0 mi South 3.5 mph - N/A   Clear
10:54 AM 73.0 °F - 59.0 °F 61% 30.21 in 10.0 mi Calm Calm - N/A   Clear
11:54 AM 79.0 °F - 60.1 °F 52% 30.17 in 10.0 mi Variable 3.5 mph - N/A   Partly Cloudy
12:54 PM 82.0 °F 82.0 °F 57.9 °F 44% 30.15 in 10.0 mi WSW 11.5 mph - N/A   Partly Cloudy
1:54 PM 84.9 °F 84.2 °F 57.9 °F 40% 30.14 in 10.0 mi WSW 11.5 mph 17.3 mph N/A   Scattered Clouds
2:54 PM 87.1 °F 85.7 °F 55.9 °F 35% 30.12 in 10.0 mi SW 8.1 mph - N/A   Scattered Clouds
3:54 PM 84.0 °F 84.5 °F 62.1 °F 47% 30.11 in 10.0 mi SSE 15.0 mph 23.0 mph N/A   Scattered Clouds
4:54 PM 82.9 °F 83.3 °F 61.0 °F 47% 30.11 in 10.0 mi South 9.2 mph - N/A   Partly Cloudy
5:54 PM 82.0 °F 82.1 °F 59.0 °F 45% 30.11 in 10.0 mi South 13.8 mph 21.9 mph N/A   Scattered Clouds
6:54 PM 81.0 °F 81.3 °F 59.0 °F 47% 30.10 in 10.0 mi South 12.7 mph 18.4 mph N/A   Partly Cloudy
7:54 PM 80.1 °F 80.7 °F 59.0 °F 48% 30.11 in 10.0 mi South 9.2 mph - N/A   Clear
8:54 PM 78.1 °F - 57.9 °F 50% 30.11 in 10.0 mi SSW 8.1 mph - N/A   Clear
9:54 PM 75.9 °F - 59.0 °F 56% 30.13 in 10.0 mi SW 4.6 mph - N/A   Clear
10:54 PM 75.0 °F - 57.9 °F 55% 30.14 in 10.0 mi SSW 6.9 mph - N/A   Clear
11:54 PM 73.0 °F - 59.0 °F 61% 30.14 in 10.0 mi South 4.6 mph - N/A   Clear